Time,TemperatureF,DewpointF,PressureIn,WindDirection,WindDirectionDegrees,WindSpeedMPH,WindSpeedGustMPH,Humidity,HourlyPrecipIn,Conditions,Clouds,dailyrainin,SoftwareType,DateUTC
2016-07-30 00:00:00,95.5,54.1,28.99,SE,135,2.0,4.0,25,0.00,,,0.00,VWS V15.00,2016-07-30 07:00:00,
2016-07-30 00:05:00,95.9,54.5,28.99,SE,135,2.0,4.0,25,0.00,,,0.00,VWS V15.00,2016-07-30 07:05:00,
2016-07-30 00:10:00,95.9,54.5,28.99,ESE,112,2.0,5.0,25,0.00,,,0.00,VWS V15.00,2016-07-30 07:10:00,
2016-07-30 00:15:00,95.7,55.4,28.97,East,90,0.0,3.0,26,0.00,,,0.00,VWS V15.00,2016-07-30 07:15:00,
2016-07-30 00:20:00,95.4,55.1,28.97,East,90,0.0,3.0,26,0.00,,,0.00,VWS V15.00,2016-07-30 07:20:00,
2016-07-30 00:25:00,95.0,55.8,28.97,ESE,112,3.0,6.0,27,0.00,,,0.00,VWS V15.00,2016-07-30 07:25:00,
2016-07-30 00:30:00,94.7,55.6,28.96,SE,135,4.0,7.0,27,0.00,,,0.00,VWS V15.00,2016-07-30 07:30:00,
2016-07-30 00:35:00,94.5,55.4,28.96,ESE,112,2.0,6.0,27,0.00,,,0.00,VWS V15.00,2016-07-30 07:35:00,
2016-07-30 00:40:00,94.3,56.2,28.96,North,0,0.0,1.0,28,0.00,,,0.00,VWS V15.00,2016-07-30 07:40:00,
2016-07-30 00:45:00,94.1,55.0,28.97,North,0,0.0,2.0,27,0.00,,,0.00,VWS V15.00,2016-07-30 07:45:00,
2016-07-30 00:50:00,94.3,55.2,28.97,NNW,338,2.0,6.0,27,0.00,,,0.00,VWS V15.00,2016-07-30 07:50:00,
2016-07-30 00:55:00,94.4,54.3,28.97,WSW,248,4.0,6.0,26,0.00,,,0.00,VWS V15.00,2016-07-30 07:55:00,
2016-07-30 01:00:00,94.7,54.5,28.97,SW,225,1.0,4.0,26,0.00,,,0.00,VWS V15.00,2016-07-30 08:00:00,
2016-07-30 01:05:00,94.7,54.5,28.97,SW,225,0.0,1.0,26,0.00,,,0.00,VWS V15.00,2016-07-30 08:05:00,
2016-07-30 01:10:00,94.7,54.5,28.97,SE,135,1.0,4.0,26,0.00,,,0.00,VWS V15.00,2016-07-30 08:10:00,
2016-07-30 01:15:00,94.8,54.6,28.97,ESE,112,1.0,3.0,26,0.00,,,0.00,VWS V15.00,2016-07-30 08:15:00,
2016-07-30 01:20:00,94.9,53.6,28.97,ESE,112,1.0,3.0,25,0.00,,,0.00,VWS V15.00,2016-07-30 08:20:00,
2016-07-30 01:25:00,95.0,53.7,28.97,East,90,1.0,3.0,25,0.00,,,0.00,VWS V15.00,2016-07-30 08:25:00,
2016-07-30 01:30:00,95.1,52.7,28.97,East,90,0.0,2.0,24,0.00,,,0.00,VWS V15.00,2016-07-30 08:30:00,
2016-07-30 01:35:00,95.3,52.8,28.97,ESE,112,1.0,3.0,24,0.00,,,0.00,VWS V15.00,2016-07-30 08:35:00,
2016-07-30 01:40:00,95.4,54.0,28.97,ESE,112,0.0,2.0,25,0.00,,,0.00,VWS V15.00,2016-07-30 08:40:00,
2016-07-30 01:45:00,95.1,53.8,28.97,ESE,112,0.0,0.0,25,0.00,,,0.00,VWS V15.00,2016-07-30 08:45:00,
2016-07-30 01:50:00,94.9,54.7,28.97,ESE,112,0.0,0.0,26,0.00,,,0.00,VWS V15.00,2016-07-30 08:50:00,
2016-07-30 01:55:00,94.6,54.4,28.97,ESE,112,0.0,0.0,26,0.00,,,0.00,VWS V15.00,2016-07-30 08:55:00,
2016-07-30 02:00:00,94.3,54.2,28.97,ESE,112,0.0,0.0,26,0.00,,,0.00,VWS V15.00,2016-07-30 09:00:00,
2016-07-30 02:05:00,94.0,55.0,28.97,East,90,0.0,1.0,27,0.00,,,0.00,VWS V15.00,2016-07-30 09:05:00,
2016-07-30 02:10:00,93.9,53.8,28.97,ESE,112,0.0,2.0,26,0.00,,,0.00,VWS V15.00,2016-07-30 09:10:00,
2016-07-30 02:15:00,94.0,53.9,28.99,East,90,0.0,3.0,26,0.00,,,0.00,VWS V15.00,2016-07-30 09:15:00,
2016-07-30 02:20:00,94.3,54.2,28.99,East,90,0.0,0.0,26,0.00,,,0.00,VWS V15.00,2016-07-30 09:20:00,
2016-07-30 02:25:00,94.0,53.9,28.99,East,90,1.0,2.0,26,0.00,,,0.00,VWS V15.00,2016-07-30 09:25:00,
2016-07-30 02:30:00,93.8,54.8,28.99,East,90,1.0,3.0,27,0.00,,,0.00,VWS V15.00,2016-07-30 09:30:00,
2016-07-30 02:35:00,93.4,54.5,28.99,East,90,0.0,0.0,27,0.00,,,0.00,VWS V15.00,2016-07-30 09:35:00,
2016-07-30 02:40:00,93.2,55.3,28.99,East,90,0.0,0.0,28,0.00,,,0.00,VWS V15.00,2016-07-30 09:40:00,
2016-07-30 02:45:00,93.2,53.2,29.01,East,90,2.0,11.0,26,0.00,,,0.00,VWS V15.00,2016-07-30 09:45:00,
2016-07-30 02:50:00,94.0,55.0,29.01,ESE,112,9.0,22.0,27,0.00,,,0.00,VWS V15.00,2016-07-30 09:50:00,
2016-07-30 02:55:00,94.2,59.8,29.01,SE,135,13.0,22.0,32,0.00,,,0.00,VWS V15.00,2016-07-30 09:55:00,
2016-07-30 03:00:00,93.4,60.0,29.02,SE,135,15.0,21.0,33,0.00,,,0.00,VWS V15.00,2016-07-30 10:00:00,
2016-07-30 03:05:00,92.9,61.2,29.02,SE,135,16.0,28.0,35,0.00,,,0.00,VWS V15.00,2016-07-30 10:05:00,
2016-07-30 03:10:00,92.3,61.5,29.02,SE,135,15.0,24.0,36,0.00,,,0.00,VWS V15.00,2016-07-30 10:10:00,
2016-07-30 03:15:00,91.7,61.0,29.03,ESE,112,16.0,25.0,36,0.00,,,0.00,VWS V15.00,2016-07-30 10:15:00,
2016-07-30 03:20:00,91.4,61.5,29.03,SE,135,14.0,21.0,37,0.00,,,0.00,VWS V15.00,2016-07-30 10:20:00,
2016-07-30 03:25:00,91.0,62.6,29.03,SE,135,13.0,22.0,39,0.00,,,0.00,VWS V15.00,2016-07-30 10:25:00,
2016-07-30 03:30:00,90.4,62.8,29.04,SE,135,12.0,21.0,40,0.00,,,0.00,VWS V15.00,2016-07-30 10:30:00,
2016-07-30 03:35:00,90.1,62.5,29.04,SE,135,11.0,16.0,40,0.00,,,0.00,VWS V15.00,2016-07-30 10:35:00,
2016-07-30 03:40:00,90.0,62.5,29.04,SE,135,11.0,16.0,40,0.00,,,0.00,VWS V15.00,2016-07-30 10:40:00,
2016-07-30 03:45:00,90.1,62.5,29.05,SE,135,10.0,13.0,40,0.00,,,0.00,VWS V15.00,2016-07-30 10:45:00,
2016-07-30 03:50:00,90.1,62.5,29.05,ESE,112,11.0,16.0,40,0.00,,,0.00,VWS V15.00,2016-07-30 10:50:00,
2016-07-30 03:55:00,89.8,63.0,29.05,ESE,112,11.0,19.0,41,0.00,,,0.00,VWS V15.00,2016-07-30 10:55:00,
2016-07-30 04:00:00,89.3,62.5,29.06,ESE,112,9.0,14.0,41,0.00,,,0.00,VWS V15.00,2016-07-30 11:00:00,
2016-07-30 04:05:00,88.9,62.9,29.06,ESE,112,11.0,18.0,42,0.00,,,0.00,VWS V15.00,2016-07-30 11:05:00,
2016-07-30 04:10:00,88.6,62.6,29.06,ESE,112,9.0,15.0,42,0.00,,,0.00,VWS V15.00,2016-07-30 11:10:00,
2016-07-30 04:15:00,88.6,62.6,29.06,ESE,112,10.0,18.0,42,0.00,,,0.00,VWS V15.00,2016-07-30 11:15:00,
2016-07-30 04:20:00,88.4,62.4,29.06,SE,135,9.0,16.0,42,0.00,,,0.00,VWS V15.00,2016-07-30 11:20:00,
2016-07-30 04:25:00,88.3,62.3,29.06,SE,135,8.0,13.0,42,0.00,,,0.00,VWS V15.00,2016-07-30 11:25:00,
2016-07-30 04:30:00,88.2,62.2,29.06,ESE,112,7.0,12.0,42,0.00,,,0.00,VWS V15.00,2016-07-30 11:30:00,
2016-07-30 04:35:00,88.1,62.1,29.06,ESE,112,9.0,14.0,42,0.00,,,0.00,VWS V15.00,2016-07-30 11:35:00,
2016-07-30 04:40:00,87.9,62.0,29.06,SE,135,9.0,16.0,42,0.00,,,0.00,VWS V15.00,2016-07-30 11:40:00,
2016-07-30 04:45:00,87.8,61.9,29.07,ESE,112,9.0,18.0,42,0.00,,,0.00,VWS V15.00,2016-07-30 11:45:00,
2016-07-30 04:50:00,87.7,61.8,29.07,SE,135,11.0,21.0,42,0.00,,,0.00,VWS V15.00,2016-07-30 11:50:00,
2016-07-30 04:55:00,87.3,62.1,29.07,SE,135,13.0,24.0,43,0.00,,,0.00,VWS V15.00,2016-07-30 11:55:00,
2016-07-30 05:00:00,87.0,61.8,29.07,SE,135,13.0,21.0,43,0.00,,,0.00,VWS V15.00,2016-07-30 12:00:00,
2016-07-30 05:05:00,87.0,61.8,29.07,SE,135,12.0,19.0,43,0.00,,,0.00,VWS V15.00,2016-07-30 12:05:00,
2016-07-30 05:10:00,87.0,61.8,29.07,SE,135,14.0,20.0,43,0.00,,,0.00,VWS V15.00,2016-07-30 12:10:00,
2016-07-30 05:15:00,86.7,62.2,29.07,SE,135,11.0,19.0,44,0.00,,,0.00,VWS V15.00,2016-07-30 12:15:00,
2016-07-30 05:20:00,86.5,62.0,29.07,SE,135,12.0,18.0,44,0.00,,,0.00,VWS V15.00,2016-07-30 12:20:00,
2016-07-30 05:25:00,86.5,62.0,29.07,SE,135,12.0,19.0,44,0.00,,,0.00,VWS V15.00,2016-07-30 12:25:00,
2016-07-30 05:30:00,86.5,61.4,29.08,SE,135,12.0,17.0,43,0.00,,,0.00,VWS V15.00,2016-07-30 12:30:00,
2016-07-30 05:35:00,86.4,61.3,29.08,ESE,112,10.0,16.0,43,0.00,,,0.00,VWS V15.00,2016-07-30 12:35:00,
2016-07-30 05:45:00,86.5,61.4,29.08,SE,135,9.0,13.0,43,0.00,,,0.00,VWS V15.00,2016-07-30 12:45:00,
2016-07-30 05:50:00,86.5,61.4,29.08,SE,135,9.0,12.0,43,0.00,,,0.00,VWS V15.00,2016-07-30 12:50:00,
2016-07-30 05:55:00,86.4,61.3,29.08,ESE,112,6.0,11.0,43,0.00,,,0.00,VWS V15.00,2016-07-30 12:55:00,
2016-07-30 06:00:00,86.3,61.2,29.09,SE,135,8.0,12.0,43,0.00,,,0.00,VWS V15.00,2016-07-30 13:00:00,
2016-07-30 06:05:00,86.3,61.8,29.09,SE,135,8.0,11.0,44,0.00,,,0.00,VWS V15.00,2016-07-30 13:05:00,
2016-07-30 06:10:00,86.3,61.8,29.09,SE,135,7.0,13.0,44,0.00,,,0.00,VWS V15.00,2016-07-30 13:10:00,
2016-07-30 06:15:00,86.3,61.8,29.10,ESE,112,7.0,12.0,44,0.00,,,0.00,VWS V15.00,2016-07-30 13:15:00,
2016-07-30 06:20:00,86.5,62.0,29.10,SE,135,6.0,11.0,44,0.00,,,0.00,VWS V15.00,2016-07-30 13:20:00,
2016-07-30 06:25:00,86.5,62.0,29.10,ESE,112,6.0,11.0,44,0.00,,,0.00,VWS V15.00,2016-07-30 13:25:00,
2016-07-30 06:30:00,86.5,62.0,29.10,ESE,112,6.0,9.0,44,0.00,,,0.00,VWS V15.00,2016-07-30 13:30:00,
2016-07-30 06:35:00,86.5,61.4,29.10,ESE,112,5.0,8.0,43,0.00,,,0.00,VWS V15.00,2016-07-30 13:35:00,
2016-07-30 06:40:00,86.5,61.4,29.10,ESE,112,5.0,10.0,43,0.00,,,0.00,VWS V15.00,2016-07-30 13:40:00,
2016-07-30 06:45:00,86.5,62.0,29.10,ESE,112,6.0,8.0,44,0.00,,,0.00,VWS V15.00,2016-07-30 13:45:00,
2016-07-30 06:50:00,86.5,62.0,29.10,SE,135,7.0,11.0,44,0.00,,,0.00,VWS V15.00,2016-07-30 13:50:00,
2016-07-30 06:55:00,86.5,62.0,29.10,SE,135,8.0,12.0,44,0.00,,,0.00,VWS V15.00,2016-07-30 13:55:00,
2016-07-30 07:00:00,86.3,61.8,29.10,SE,135,7.0,12.0,44,0.00,,,0.00,VWS V15.00,2016-07-30 14:00:00,
2016-07-30 07:05:00,86.3,61.8,29.10,SE,135,7.0,11.0,44,0.00,,,0.00,VWS V15.00,2016-07-30 14:05:00,
2016-07-30 07:10:00,86.3,61.8,29.10,ESE,112,6.0,12.0,44,0.00,,,0.00,VWS V15.00,2016-07-30 14:10:00,
2016-07-30 07:15:00,86.3,61.8,29.11,ESE,112,6.0,10.0,44,0.00,,,0.00,VWS V15.00,2016-07-30 14:15:00,
2016-07-30 07:20:00,86.5,62.0,29.11,ESE,112,7.0,11.0,44,0.00,,,0.00,VWS V15.00,2016-07-30 14:20:00,
2016-07-30 07:25:00,86.6,62.1,29.11,SE,135,7.0,12.0,44,0.00,,,0.00,VWS V15.00,2016-07-30 14:25:00,
2016-07-30 07:30:00,86.7,62.2,29.11,ESE,112,8.0,11.0,44,0.00,,,0.00,VWS V15.00,2016-07-30 14:30:00,
2016-07-30 07:35:00,86.7,62.2,29.11,ESE,112,7.0,12.0,44,0.00,,,0.00,VWS V15.00,2016-07-30 14:35:00,
2016-07-30 07:40:00,87.1,62.6,29.11,ESE,112,5.0,8.0,44,0.00,,,0.00,VWS V15.00,2016-07-30 14:40:00,
2016-07-30 07:45:00,87.3,62.1,29.11,ESE,112,4.0,8.0,43,0.00,,,0.00,VWS V15.00,2016-07-30 14:45:00,
2016-07-30 07:50:00,87.5,62.3,29.11,ESE,112,3.0,7.0,43,0.00,,,0.00,VWS V15.00,2016-07-30 14:50:00,
2016-07-30 07:55:00,87.9,62.6,29.11,ESE,112,3.0,6.0,43,0.00,,,0.00,VWS V15.00,2016-07-30 14:55:00,
2016-07-30 08:00:00,88.0,62.0,29.12,ESE,112,3.0,5.0,42,0.00,,,0.00,VWS V15.00,2016-07-30 15:00:00,
2016-07-30 08:05:00,88.4,62.4,29.12,ESE,112,2.0,5.0,42,0.00,,,0.00,VWS V15.00,2016-07-30 15:05:00,
2016-07-30 08:10:00,88.8,62.1,29.12,ESE,112,3.0,6.0,41,0.00,,,0.00,VWS V15.00,2016-07-30 15:10:00,
2016-07-30 08:15:00,89.1,62.4,29.12,East,90,3.0,7.0,41,0.00,,,0.00,VWS V15.00,2016-07-30 15:15:00,
2016-07-30 08:20:00,89.4,62.6,29.12,ESE,112,2.0,5.0,41,0.00,,,0.00,VWS V15.00,2016-07-30 15:20:00,
2016-07-30 08:25:00,89.8,62.3,29.12,ESE,112,1.0,5.0,40,0.00,,,0.00,VWS V15.00,2016-07-30 15:25:00,
2016-07-30 08:30:00,90.4,62.1,29.12,ESE,112,3.0,7.0,39,0.00,,,0.00,VWS V15.00,2016-07-30 15:30:00,
2016-07-30 08:35:00,90.7,62.4,29.12,ESE,112,5.0,8.0,39,0.00,,,0.00,VWS V15.00,2016-07-30 15:35:00,
2016-07-30 08:40:00,90.9,61.8,29.12,ESE,112,4.0,7.0,38,0.00,,,0.00,VWS V15.00,2016-07-30 15:40:00,
2016-07-30 08:45:00,91.0,61.9,29.12,ESE,112,2.0,7.0,38,0.00,,,0.00,VWS V15.00,2016-07-30 15:45:00,
2016-07-30 08:50:00,91.4,62.2,29.12,ESE,112,1.0,5.0,38,0.00,,,0.00,VWS V15.00,2016-07-30 15:50:00,
2016-07-30 08:55:00,92.0,62.0,29.12,SE,135,2.0,6.0,37,0.00,,,0.00,VWS V15.00,2016-07-30 15:55:00,
2016-07-30 09:00:00,92.2,62.2,29.11,ESE,112,2.0,8.0,37,0.00,,,0.00,VWS V15.00,2016-07-30 16:00:00,
2016-07-30 09:05:00,92.3,62.3,29.11,ESE,112,5.0,8.0,37,0.00,,,0.00,VWS V15.00,2016-07-30 16:05:00,
2016-07-30 09:10:00,92.3,62.3,29.11,ESE,112,5.0,10.0,37,0.00,,,0.00,VWS V15.00,2016-07-30 16:10:00,
2016-07-30 09:15:00,92.3,62.3,29.12,East,90,4.0,7.0,37,0.00,,,0.00,VWS V15.00,2016-07-30 16:15:00,
2016-07-30 09:20:00,92.6,61.8,29.12,ESE,112,4.0,8.0,36,0.00,,,0.00,VWS V15.00,2016-07-30 16:20:00,
2016-07-30 09:25:00,93.0,62.1,29.12,East,90,3.0,10.0,36,0.00,,,0.00,VWS V15.00,2016-07-30 16:25:00,
2016-07-30 09:30:00,93.4,61.7,29.11,SE,135,4.0,8.0,35,0.00,,,0.00,VWS V15.00,2016-07-30 16:30:00,
2016-07-30 09:35:00,93.7,61.9,29.11,East,90,4.0,8.0,35,0.00,,,0.00,VWS V15.00,2016-07-30 16:35:00,
2016-07-30 09:40:00,93.7,61.9,29.11,ESE,112,4.0,10.0,35,0.00,,,0.00,VWS V15.00,2016-07-30 16:40:00,
2016-07-30 09:45:00,93.9,62.1,29.11,East,90,2.0,7.0,35,0.00,,,0.00,VWS V15.00,2016-07-30 16:45:00,
2016-07-30 09:50:00,94.3,61.7,29.11,ESE,112,2.0,6.0,34,0.00,,,0.00,VWS V15.00,2016-07-30 16:50:00,
2016-07-30 09:55:00,94.7,62.0,29.11,ESE,112,1.0,7.0,34,0.00,,,0.00,VWS V15.00,2016-07-30 16:55:00,
2016-07-30 10:00:00,95.0,61.4,29.10,East,90,2.0,8.0,33,0.00,,,0.00,VWS V15.00,2016-07-30 17:00:00,
2016-07-30 10:05:00,95.6,61.1,29.10,ESE,112,5.0,12.0,32,0.00,,,0.00,VWS V15.00,2016-07-30 17:05:00,
2016-07-30 10:10:00,96.0,61.4,29.10,SE,135,4.0,8.0,32,0.00,,,0.00,VWS V15.00,2016-07-30 17:10:00,
2016-07-30 10:15:00,96.1,60.6,29.10,SE,135,6.0,12.0,31,0.00,,,0.00,VWS V15.00,2016-07-30 17:15:00,
2016-07-30 10:20:00,96.3,60.8,29.10,SE,135,6.0,11.0,31,0.00,,,0.00,VWS V15.00,2016-07-30 17:20:00,
2016-07-30 10:25:00,96.7,61.1,29.10,SE,135,7.0,11.0,31,0.00,,,0.00,VWS V15.00,2016-07-30 17:25:00,
2016-07-30 10:30:00,96.8,61.2,29.09,SE,135,7.0,13.0,31,0.00,,,0.00,VWS V15.00,2016-07-30 17:30:00,
2016-07-30 10:35:00,97.1,60.5,29.09,SE,135,2.0,6.0,30,0.00,,,0.00,VWS V15.00,2016-07-30 17:35:00,
2016-07-30 10:40:00,97.4,59.8,29.09,SE,135,3.0,8.0,29,0.00,,,0.00,VWS V15.00,2016-07-30 17:40:00,
2016-07-30 10:45:00,97.5,60.9,29.08,SE,135,5.0,10.0,30,0.00,,,0.00,VWS V15.00,2016-07-30 17:45:00,
2016-07-30 10:50:00,97.9,60.3,29.08,SE,135,3.0,8.0,29,0.00,,,0.00,VWS V15.00,2016-07-30 17:50:00,
2016-07-30 10:55:00,98.4,58.7,29.08,SE,135,5.0,11.0,27,0.00,,,0.00,VWS V15.00,2016-07-30 17:55:00,
2016-07-30 11:00:00,98.8,61.0,29.08,SE,135,6.0,12.0,29,0.00,,,0.00,VWS V15.00,2016-07-30 18:00:00,
2016-07-30 11:05:00,98.6,58.9,29.08,East,90,5.0,10.0,27,0.00,,,0.00,VWS V15.00,2016-07-30 18:05:00,
2016-07-30 11:10:00,99.0,59.2,29.08,SSE,158,6.0,12.0,27,0.00,,,0.00,VWS V15.00,2016-07-30 18:10:00,
2016-07-30 11:15:00,99.1,60.3,29.08,SE,135,5.0,12.0,28,0.00,,,0.00,VWS V15.00,2016-07-30 18:15:00,
2016-07-30 11:20:00,99.5,60.7,29.08,SE,135,7.0,12.0,28,0.00,,,0.00,VWS V15.00,2016-07-30 18:20:00,
2016-07-30 11:25:00,99.2,61.4,29.08,East,90,2.0,7.0,29,0.00,,,0.00,VWS V15.00,2016-07-30 18:25:00,
2016-07-30 11:30:00,99.2,60.4,29.07,East,90,3.0,8.0,28,0.00,,,0.00,VWS V15.00,2016-07-30 18:30:00,
2016-07-30 11:35:00,99.3,60.5,29.07,SE,135,3.0,8.0,28,0.00,,,0.00,VWS V15.00,2016-07-30 18:35:00,
2016-07-30 11:40:00,99.8,60.9,29.07,ESE,112,3.0,7.0,28,0.00,,,0.00,VWS V15.00,2016-07-30 18:40:00,
2016-07-30 11:45:00,99.8,60.9,29.06,SE,135,4.0,11.0,28,0.00,,,0.00,VWS V15.00,2016-07-30 18:45:00,
2016-07-30 11:50:00,99.9,60.0,29.06,SE,135,5.0,11.0,27,0.00,,,0.00,VWS V15.00,2016-07-30 18:50:00,
2016-07-30 11:55:00,100.6,60.6,29.06,SE,135,4.0,10.0,27,0.00,,,0.00,VWS V15.00,2016-07-30 18:55:00,
2016-07-30 12:00:00,100.6,60.6,29.05,ESE,112,5.0,8.0,27,0.00,,,0.00,VWS V15.00,2016-07-30 19:00:00,
2016-07-30 12:05:00,100.5,60.5,29.05,East,90,1.0,6.0,27,0.00,,,0.00,VWS V15.00,2016-07-30 19:05:00,
2016-07-30 12:10:00,101.1,61.0,29.05,SE,135,4.0,9.0,27,0.00,,,0.00,VWS V15.00,2016-07-30 19:10:00,
2016-07-30 12:15:00,101.4,60.2,29.05,SE,135,5.0,12.0,26,0.00,,,0.00,VWS V15.00,2016-07-30 19:15:00,
2016-07-30 12:20:00,101.1,61.0,29.05,SE,135,4.0,7.0,27,0.00,,,0.00,VWS V15.00,2016-07-30 19:20:00,
2016-07-30 12:25:00,101.1,59.9,29.05,East,90,4.0,11.0,26,0.00,,,0.00,VWS V15.00,2016-07-30 19:25:00,
2016-07-30 12:30:00,101.4,60.2,29.05,ESE,112,5.0,11.0,26,0.00,,,0.00,VWS V15.00,2016-07-30 19:30:00,
2016-07-30 12:35:00,101.5,60.3,29.05,ESE,112,2.0,6.0,26,0.00,,,0.00,VWS V15.00,2016-07-30 19:35:00,
2016-07-30 12:40:00,102.0,59.6,29.05,SSE,158,2.0,7.0,25,0.00,,,0.00,VWS V15.00,2016-07-30 19:40:00,
2016-07-30 12:45:00,102.5,60.0,29.04,SW,225,1.0,5.0,25,0.00,,,0.00,VWS V15.00,2016-07-30 19:45:00,
2016-07-30 12:50:00,103.4,60.8,29.04,East,90,2.0,5.0,25,0.00,,,0.00,VWS V15.00,2016-07-30 19:50:00,
2016-07-30 12:55:00,103.7,61.0,29.04,East,90,4.0,8.0,25,0.00,,,0.00,VWS V15.00,2016-07-30 19:55:00,
2016-07-30 13:00:00,103.0,61.5,29.03,SE,135,1.0,4.0,26,0.00,,,0.00,VWS V15.00,2016-07-30 20:00:00,
2016-07-30 13:05:00,103.1,60.5,29.03,East,90,4.0,8.0,25,0.00,,,0.00,VWS V15.00,2016-07-30 20:05:00,
2016-07-30 13:10:00,103.1,60.5,29.03,ESE,112,5.0,8.0,25,0.00,,,0.00,VWS V15.00,2016-07-30 20:10:00,
2016-07-30 13:15:00,103.1,60.5,29.03,ESE,112,1.0,3.0,25,0.00,,,0.00,VWS V15.00,2016-07-30 20:15:00,
2016-07-30 13:20:00,103.8,59.9,29.03,ESE,112,2.0,6.0,24,0.00,,,0.00,VWS V15.00,2016-07-30 20:20:00,
2016-07-30 13:25:00,103.8,58.7,29.03,ESE,112,2.0,7.0,23,0.00,,,0.00,VWS V15.00,2016-07-30 20:25:00,
2016-07-30 13:30:00,103.7,59.8,29.02,ESE,112,2.0,6.0,24,0.00,,,0.00,VWS V15.00,2016-07-30 20:30:00,
2016-07-30 13:35:00,103.7,59.8,29.02,ESE,112,1.0,3.0,24,0.00,,,0.00,VWS V15.00,2016-07-30 20:35:00,
2016-07-30 13:40:00,104.2,59.1,29.02,ESE,112,0.0,2.0,23,0.00,,,0.00,VWS V15.00,2016-07-30 20:40:00,
2016-07-30 13:45:00,104.3,59.2,29.01,SE,135,2.0,5.0,23,0.00,,,0.00,VWS V15.00,2016-07-30 20:45:00,
2016-07-30 13:50:00,103.8,58.7,29.01,East,90,1.0,3.0,23,0.00,,,0.00,VWS V15.00,2016-07-30 20:50:00,
2016-07-30 13:55:00,103.2,58.2,29.01,East,90,3.0,7.0,23,0.00,,,0.00,VWS V15.00,2016-07-30 20:55:00,
2016-07-30 14:00:00,102.9,58.0,29.00,NW,315,1.0,5.0,23,0.00,,,0.00,VWS V15.00,2016-07-30 21:00:00,
2016-07-30 14:05:00,103.1,58.2,29.00,WNW,292,1.0,2.0,23,0.00,,,0.00,VWS V15.00,2016-07-30 21:05:00,
2016-07-30 14:10:00,103.2,59.4,29.00,SE,135,1.0,5.0,24,0.00,,,0.00,VWS V15.00,2016-07-30 21:10:00,
2016-07-30 14:15:00,103.4,58.4,29.00,ESE,112,0.0,1.0,23,0.00,,,0.00,VWS V15.00,2016-07-30 21:15:00,
2016-07-30 14:20:00,103.7,58.7,29.00,East,90,1.0,3.0,23,0.00,,,0.00,VWS V15.00,2016-07-30 21:20:00,
2016-07-30 14:25:00,103.8,57.5,29.00,ESE,112,4.0,5.0,22,0.00,,,0.00,VWS V15.00,2016-07-30 21:25:00,
2016-07-30 14:30:00,103.8,58.7,28.99,ESE,112,4.0,7.0,23,0.00,,,0.00,VWS V15.00,2016-07-30 21:30:00,
2016-07-30 14:35:00,103.8,57.5,28.99,ESE,112,3.0,7.0,22,0.00,,,0.00,VWS V15.00,2016-07-30 21:35:00,
2016-07-30 14:40:00,104.0,57.7,28.99,East,90,2.0,4.0,22,0.00,,,0.00,VWS V15.00,2016-07-30 21:40:00,
2016-07-30 14:45:00,104.5,58.1,28.98,ESE,112,4.0,7.0,22,0.00,,,0.00,VWS V15.00,2016-07-30 21:45:00,
2016-07-30 14:50:00,105.1,58.6,28.98,SE,135,6.0,10.0,22,0.00,,,0.00,VWS V15.00,2016-07-30 21:50:00,
2016-07-30 14:55:00,105.1,58.6,28.98,East,90,5.0,11.0,22,0.00,,,0.00,VWS V15.00,2016-07-30 21:55:00,
2016-07-30 15:00:00,105.0,57.2,28.97,ESE,112,1.0,7.0,21,0.00,,,0.00,VWS V15.00,2016-07-30 22:00:00,
2016-07-30 15:05:00,105.6,57.7,28.97,SSE,158,2.0,8.0,21,0.00,,,0.00,VWS V15.00,2016-07-30 22:05:00,
2016-07-30 15:10:00,105.9,56.6,28.97,SE,135,3.0,8.0,20,0.00,,,0.00,VWS V15.00,2016-07-30 22:10:00,
2016-07-30 15:15:00,106.1,58.1,28.96,SE,135,4.0,10.0,21,0.00,,,0.00,VWS V15.00,2016-07-30 22:15:00,
2016-07-30 15:20:00,106.0,56.7,28.96,East,90,5.0,12.0,20,0.00,,,0.00,VWS V15.00,2016-07-30 22:20:00,
2016-07-30 15:25:00,105.9,59.2,28.96,SE,135,7.0,13.0,22,0.00,,,0.00,VWS V15.00,2016-07-30 22:25:00,
2016-07-30 15:30:00,105.7,60.3,28.96,ESE,112,6.0,13.0,23,0.00,,,0.00,VWS V15.00,2016-07-30 22:30:00,
2016-07-30 15:35:00,105.2,59.9,28.96,East,90,5.0,13.0,23,0.00,,,0.00,VWS V15.00,2016-07-30 22:35:00,
2016-07-30 15:40:00,104.5,60.5,28.96,ESE,112,4.0,11.0,24,0.00,,,0.00,VWS V15.00,2016-07-30 22:40:00,
2016-07-30 15:45:00,104.2,60.3,28.96,SE,135,6.0,14.0,24,0.00,,,0.00,VWS V15.00,2016-07-30 22:45:00,
2016-07-30 15:50:00,103.7,61.0,28.96,ESE,112,4.0,11.0,25,0.00,,,0.00,VWS V15.00,2016-07-30 22:50:00,
2016-07-30 15:55:00,103.6,59.8,28.96,SE,135,5.0,10.0,24,0.00,,,0.00,VWS V15.00,2016-07-30 22:55:00,
2016-07-30 16:00:00,103.6,59.8,28.95,ESE,112,5.0,11.0,24,0.00,,,0.00,VWS V15.00,2016-07-30 23:00:00,
2016-07-30 16:05:00,103.6,59.8,28.95,SSE,158,8.0,14.0,24,0.00,,,0.00,VWS V15.00,2016-07-30 23:05:00,
2016-07-30 16:10:00,103.6,58.6,28.95,SE,135,12.0,20.0,23,0.00,,,0.00,VWS V15.00,2016-07-30 23:10:00,
2016-07-30 16:15:00,103.2,59.4,28.95,SE,135,11.0,20.0,24,0.00,,,0.00,VWS V15.00,2016-07-30 23:15:00,
2016-07-30 16:20:00,102.6,60.1,28.95,SE,135,13.0,19.0,25,0.00,,,0.00,VWS V15.00,2016-07-30 23:20:00,
2016-07-30 16:25:00,102.1,60.8,28.95,SSE,158,12.0,18.0,26,0.00,,,0.00,VWS V15.00,2016-07-30 23:25:00,
2016-07-30 16:30:00,101.9,60.6,28.95,SE,135,11.0,18.0,26,0.00,,,0.00,VWS V15.00,2016-07-30 23:30:00,
2016-07-30 16:35:00,101.5,61.3,28.95,SSE,158,12.0,18.0,27,0.00,,,0.00,VWS V15.00,2016-07-30 23:35:00,
2016-07-30 16:40:00,101.1,62.0,28.95,SE,135,13.0,20.0,28,0.00,,,0.00,VWS V15.00,2016-07-30 23:40:00,
2016-07-30 16:45:00,100.4,61.4,28.97,SE,135,12.0,19.0,28,0.00,,,0.00,VWS V15.00,2016-07-30 23:45:00,
2016-07-30 16:50:00,100.1,61.2,28.97,SE,135,11.0,17.0,28,0.00,,,0.00,VWS V15.00,2016-07-30 23:50:00,
2016-07-30 16:55:00,99.9,61.0,28.97,SE,135,11.0,19.0,28,0.00,,,0.00,VWS V15.00,2016-07-30 23:55:00,
2016-07-30 17:00:00,99.9,61.0,28.96,SE,135,11.0,19.0,28,0.00,,,0.00,VWS V15.00,2016-07-31 00:00:00,
2016-07-30 17:05:00,99.9,61.0,28.96,SE,135,12.0,19.0,28,0.00,,,0.00,VWS V15.00,2016-07-31 00:05:00,
2016-07-30 17:10:00,99.9,61.0,28.96,SE,135,14.0,20.0,28,0.00,,,0.00,VWS V15.00,2016-07-31 00:10:00,
2016-07-30 17:15:00,99.9,61.0,28.96,SE,135,15.0,27.0,28,0.00,,,0.00,VWS V15.00,2016-07-31 00:15:00,
2016-07-30 17:20:00,99.9,61.0,28.96,SE,135,12.0,19.0,28,0.00,,,0.00,VWS V15.00,2016-07-31 00:20:00,
2016-07-30 17:25:00,100.1,60.1,28.96,SE,135,12.0,20.0,27,0.00,,,0.00,VWS V15.00,2016-07-31 00:25:00,
2016-07-30 17:30:00,100.0,61.1,28.95,SE,135,15.0,22.0,28,0.00,,,0.00,VWS V15.00,2016-07-31 00:30:00,
2016-07-30 17:35:00,100.1,60.1,28.95,SE,135,12.0,22.0,27,0.00,,,0.00,VWS V15.00,2016-07-31 00:35:00,
2016-07-30 17:40:00,100.2,61.2,28.95,SE,135,11.0,19.0,28,0.00,,,0.00,VWS V15.00,2016-07-31 00:40:00,
2016-07-30 17:45:00,100.6,61.6,28.95,ESE,112,9.0,18.0,28,0.00,,,0.00,VWS V15.00,2016-07-31 00:45:00,
2016-07-30 17:50:00,100.5,61.5,28.95,SE,135,10.0,17.0,28,0.00,,,0.00,VWS V15.00,2016-07-31 00:50:00,
2016-07-30 17:55:00,100.5,60.5,28.95,SE,135,12.0,19.0,27,0.00,,,0.00,VWS V15.00,2016-07-31 00:55:00,
2016-07-30 18:00:00,100.4,60.4,28.95,SE,135,13.0,21.0,27,0.00,,,0.00,VWS V15.00,2016-07-31 01:00:00,
2016-07-30 18:05:00,100.1,61.2,28.95,SE,135,12.0,21.0,28,0.00,,,0.00,VWS V15.00,2016-07-31 01:05:00,
2016-07-30 18:10:00,100.0,60.0,28.95,SE,135,11.0,19.0,27,0.00,,,0.00,VWS V15.00,2016-07-31 01:10:00,
2016-07-30 18:15:00,99.9,60.0,28.94,SE,135,11.0,20.0,27,0.00,,,0.00,VWS V15.00,2016-07-31 01:15:00,
2016-07-30 18:20:00,99.9,60.0,28.94,SSE,158,10.0,17.0,27,0.00,,,0.00,VWS V15.00,2016-07-31 01:20:00,
2016-07-30 18:25:00,99.9,60.0,28.94,SE,135,11.0,20.0,27,0.00,,,0.00,VWS V15.00,2016-07-31 01:25:00,
2016-07-30 18:30:00,99.5,59.6,28.94,SE,135,11.0,18.0,27,0.00,,,0.00,VWS V15.00,2016-07-31 01:30:00,
2016-07-30 18:35:00,99.2,59.4,28.94,SE,135,11.0,19.0,27,0.00,,,0.00,VWS V15.00,2016-07-31 01:35:00,
2016-07-30 18:40:00,99.0,59.2,28.94,SE,135,11.0,19.0,27,0.00,,,0.00,VWS V15.00,2016-07-31 01:40:00,
2016-07-30 18:45:00,99.0,59.2,28.94,SE,135,12.0,20.0,27,0.00,,,0.00,VWS V15.00,2016-07-31 01:45:00,
2016-07-30 18:50:00,99.0,59.2,28.94,SE,135,9.0,17.0,27,0.00,,,0.00,VWS V15.00,2016-07-31 01:50:00,
2016-07-30 18:55:00,98.9,59.1,28.94,SE,135,10.0,19.0,27,0.00,,,0.00,VWS V15.00,2016-07-31 01:55:00,
2016-07-30 19:00:00,98.7,59.0,28.95,SE,135,9.0,17.0,27,0.00,,,0.00,VWS V15.00,2016-07-31 02:00:00,
2016-07-30 19:05:00,98.7,57.9,28.95,SE,135,10.0,18.0,26,0.00,,,0.00,VWS V15.00,2016-07-31 02:05:00,
2016-07-30 19:10:00,98.7,59.0,28.95,SE,135,12.0,22.0,27,0.00,,,0.00,VWS V15.00,2016-07-31 02:10:00,
2016-07-30 19:15:00,98.4,58.7,28.95,SE,135,11.0,17.0,27,0.00,,,0.00,VWS V15.00,2016-07-31 02:15:00,
2016-07-30 19:29:00,97.9,58.3,28.95,SE,135,15.0,21.0,27,0.00,,,0.00,VWS V15.00,2016-07-31 02:29:00,
2016-07-30 19:34:00,97.1,57.6,28.95,ESE,117,16.0,20.0,27,0.00,,,0.00,VWS V15.00,2016-07-31 02:34:00,
2016-07-30 19:39:00,97.1,58.6,28.95,ESE,120,13.0,19.0,28,0.00,,,0.00,VWS V15.00,2016-07-31 02:39:00,
2016-07-30 19:44:00,97.1,57.6,28.95,South,189,10.0,27.0,27,0.00,,,0.00,VWS V15.00,2016-07-31 02:44:00,
2016-07-30 19:49:00,96.8,58.3,28.95,SSE,147,13.0,18.0,28,0.00,,,0.00,VWS V15.00,2016-07-31 02:49:00,
2016-07-30 19:54:00,96.6,58.2,28.95,SSE,161,12.0,20.0,28,0.00,,,0.00,VWS V15.00,2016-07-31 02:54:00,
2016-07-30 19:59:00,96.6,58.2,28.95,SE,128,13.0,14.0,28,0.00,,,0.00,VWS V15.00,2016-07-31 02:59:00,
2016-07-30 20:04:00,96.3,58.9,28.95,SSE,148,10.0,21.0,29,0.00,,,0.00,VWS V15.00,2016-07-31 03:04:00,
2016-07-30 20:09:00,96.1,58.7,28.95,ESE,117,16.0,17.0,29,0.00,,,0.00,VWS V15.00,2016-07-31 03:09:00,
2016-07-30 20:14:00,96.1,58.7,28.95,SSE,152,17.0,22.0,29,0.00,,,0.00,VWS V15.00,2016-07-31 03:14:00,
2016-07-30 20:19:00,96.1,59.7,28.95,SE,144,11.0,26.0,30,0.00,,,0.00,VWS V15.00,2016-07-31 03:19:00,
2016-07-30 20:24:00,95.6,59.2,28.95,SE,136,16.0,24.0,30,0.00,,,0.00,VWS V15.00,2016-07-31 03:24:00,
2016-07-30 20:29:00,95.4,59.1,28.96,ESE,120,16.0,25.0,30,0.00,,,0.00,VWS V15.00,2016-07-31 03:29:00,
2016-07-30 20:34:00,95.1,59.7,28.96,SE,145,12.0,20.0,31,0.00,,,0.00,VWS V15.00,2016-07-31 03:34:00,
2016-07-30 20:39:00,94.9,59.6,28.96,SE,130,14.0,22.0,31,0.00,,,0.00,VWS V15.00,2016-07-31 03:39:00,
2016-07-30 20:44:00,94.9,59.6,28.97,ESE,107,22.0,24.0,31,0.00,,,0.00,VWS V15.00,2016-07-31 03:44:00,
2016-07-30 20:49:00,94.7,59.4,28.97,ESE,117,7.0,22.0,31,0.00,,,0.00,VWS V15.00,2016-07-31 03:49:00,
2016-07-30 20:54:00,94.7,59.4,28.97,SW,224,13.0,20.0,31,0.00,,,0.00,VWS V15.00,2016-07-31 03:54:00,
2016-07-30 20:59:00,94.5,60.1,28.98,SSE,148,13.0,16.0,32,0.00,,,0.00,VWS V15.00,2016-07-31 03:59:00,
2016-07-30 21:09:00,94.3,59.9,28.98,SE,141,13.0,13.0,32,0.00,,,0.00,VWS V15.00,2016-07-31 04:09:00,
2016-07-30 21:14:00,94.3,59.9,28.98,SE,130,10.0,17.0,32,0.00,,,0.00,VWS V15.00,2016-07-31 04:14:00,
2016-07-30 21:19:00,94.3,59.9,28.98,South,176,11.0,18.0,32,0.00,,,0.00,VWS V15.00,2016-07-31 04:19:00,
2016-07-30 21:24:00,94.3,59.9,28.98,SE,141,7.0,8.0,32,0.00,,,0.00,VWS V15.00,2016-07-31 04:24:00,
2016-07-30 21:29:00,94.3,59.9,28.99,SE,131,17.0,17.0,32,0.00,,,0.00,VWS V15.00,2016-07-31 04:29:00,
2016-07-30 21:34:00,94.3,59.9,28.99,SE,126,9.0,14.0,32,0.00,,,0.00,VWS V15.00,2016-07-31 04:34:00,
2016-07-30 21:39:00,94.3,59.9,28.99,SE,124,12.0,19.0,32,0.00,,,0.00,VWS V15.00,2016-07-31 04:39:00,
2016-07-30 21:45:00,94.3,59.9,28.99,ESE,121,13.0,14.0,32,0.00,,,0.00,VWS V15.00,2016-07-31 04:45:00,
2016-07-30 21:50:00,94.0,59.7,28.99,ESE,120,8.0,14.0,32,0.00,,,0.00,VWS V15.00,2016-07-31 04:50:00,
2016-07-30 21:55:00,94.0,59.7,28.99,ESE,121,11.0,13.0,32,0.00,,,0.00,VWS V15.00,2016-07-31 04:55:00,
2016-07-30 22:00:00,94.0,59.7,29.00,SE,141,10.0,12.0,32,0.00,,,0.00,VWS V15.00,2016-07-31 05:00:00,
2016-07-30 22:05:00,93.8,59.5,29.00,SE,144,16.0,16.0,32,0.00,,,0.00,VWS V15.00,2016-07-31 05:05:00,
2016-07-30 22:10:00,93.8,60.4,29.00,SE,144,10.0,13.0,33,0.00,,,0.00,VWS V15.00,2016-07-31 05:10:00,
2016-07-30 22:15:00,93.8,60.4,28.99,South,171,7.0,14.0,33,0.00,,,0.00,VWS V15.00,2016-07-31 05:15:00,
2016-07-30 22:20:00,93.6,60.2,28.99,SE,136,13.0,13.0,33,0.00,,,0.00,VWS V15.00,2016-07-31 05:20:00,
2016-07-30 22:25:00,93.4,60.9,28.99,SE,137,12.0,12.0,34,0.00,,,0.00,VWS V15.00,2016-07-31 05:25:00,
2016-07-30 22:30:00,93.2,61.5,29.00,ESE,106,12.0,12.0,35,0.00,,,0.00,VWS V15.00,2016-07-31 05:30:00,
2016-07-30 22:35:00,92.9,61.2,29.00,ESE,110,14.0,18.0,35,0.00,,,0.00,VWS V15.00,2016-07-31 05:35:00,
2016-07-30 22:40:00,92.9,61.2,29.00,ESE,117,10.0,12.0,35,0.00,,,0.00,VWS V15.00,2016-07-31 05:40:00,
2016-07-30 22:45:00,92.9,61.2,29.00,SE,133,11.0,14.0,35,0.00,,,0.00,VWS V15.00,2016-07-31 05:45:00,
2016-07-30 22:50:00,92.9,61.2,29.00,SE,136,8.0,17.0,35,0.00,,,0.00,VWS V15.00,2016-07-31 05:50:00,
2016-07-30 22:55:00,92.9,61.2,29.00,SSE,162,10.0,13.0,35,0.00,,,0.00,VWS V15.00,2016-07-31 05:55:00,
2016-07-30 23:00:00,92.9,61.2,29.01,SSE,148,12.0,13.0,35,0.00,,,0.00,VWS V15.00,2016-07-31 06:00:00,